Location: Roanoke
(37.2710°N, 79.9420°W)
Time: 09:20:02
(UTC-04:00)

OTV 5 (USA 277) - Visible Passes

Search period start: 21 October 2019 00:00
Search period end: 31 October 2019 00:00
Orbit: 310 x 324 km, 54.5° (Epoch: 17 October)

Date Brightness Start Highest point End Pass type
(mag) Time Alt. Az. Time Alt. Az. Time Alt. Az.
21 Oct ? 05:52:34 42° E 05:52:34 42° E 05:54:45 10° ESE visible
22 Oct ? 06:07:29 31° S 06:07:29 31° S 06:09:13 10° SSE visible
25 Oct ? 19:57:57 10° S 19:58:05 11° S 19:58:05 11° S visible
26 Oct ? 20:11:49 10° SW 20:12:58 22° SW 20:12:58 22° SW visible
27 Oct ? 18:53:49 10° SSE 18:55:02 12° SE 18:56:16 10° E visible
27 Oct ? 20:26:36 10° WSW 20:27:43 19° W 20:27:43 19° W visible
28 Oct ? 19:06:50 10° SSW 19:09:23 37° SE 19:11:24 14° ENE visible
28 Oct ? 20:42:17 10° WNW 20:42:19 10° WNW 20:42:19 10° WNW visible
29 Oct ? 19:21:12 10° WSW 19:23:53 56° NW 19:25:53 16° NE visible
30 Oct ? 19:36:24 10° W 19:38:32 20° NW 19:40:14 13° N visible
